Theta_e
359 357 353 342 324 320 316 319 327 324 325 331 332 330 328 330 324 316 342 348 350 350 354 355 361 362 363 364 366 366 367 368 368 368 368 367 365 365 365 363 363 364 362 360 360 360 359 358 358
355 354 349 330 319 311 315 321 322 327 330 334 334 332 328 325 334 336 340 349 351 351 351 354 362 363 363 365 367 366 365 365 367 367 368 367 365 365 364 362 362 361 360 359 359 359 359 359 358
354 351 337 326 318 313 315 322 326 331 335 333 331 335 332 330 339 340 347 350 350 349 351 355 363 364 364 364 366 366 366 364 365 366 368 367 365 363 362 361 360 360 360 360 359 359 358 359 359
349 347 340 323 315 321 322 326 329 331 333 335 334 328 337 343 341 346 349 348 347 350 355 362 364 362 365 365 365 364 364 365 366 366 368 366 365 362 361 359 359 359 359 360 360 360 358 358 358
351 338 322 320 318 322 325 328 331 329 331 332 333 328 331 342 346 349 347 348 347 350 355 358 366 366 366 364 364 365 363 363 366 367 367 366 365 362 360 358 358 357 358 359 359 357 357 356 357
335 334 318 314 316 323 326 328 330 330 333 334 331 330 332 344 344 345 348 348 350 351 354 357 364 366 367 365 364 365 363 363 366 367 366 366 365 364 362 359 357 356 357 359 358 356 357 356 355
324 320 316 316 313 319 325 331 330 330 331 331 337 328 334 339 343 347 347 349 349 350 352 355 358 361 366 367 365 364 364 364 366 366 365 365 364 361 361 362 358 357 357 357 357 356 357 359 358
331 324 319 317 316 312 327 327 332 331 330 339 341 329 329 339 345 346 347 347 346 350 352 353 355 356 357 359 364 363 364 363 363 364 362 362 360 360 359 363 362 357 356 356 357 359 362 362 363
334 318 315 316 317 315 323 325 332 336 333 336 338 338 342 345 346 345 345 345 348 349 350 353 354 354 355 355 358 364 363 363 363 362 364 363 355 354 358 360 361 357 358 358 359 363 364 364 365
324 318 316 323 323 319 324 327 328 329 330 331 335 341 345 345 344 342 341 342 345 346 350 352 353 354 355 357 355 355 356 353 352 353 353 355 352 350 358 360 363 359 359 362 362 363 364 362 354
323 314 323 324 325 325 320 322 325 324 326 331 332 337 342 343 342 341 341 343 344 345 350 351 353 354 353 352 354 355 353 350 349 350 353 353 354 351 350 352 351 352 358 351 355 356 354 350 352
317 322 322 323 327 321 319 321 323 324 329 336 336 336 342 340 340 340 341 342 343 344 346 349 352 353 352 355 353 353 351 350 349 352 355 352 352 347 351 352 348 352 352 351 353 351 350 351 348
317 320 323 324 325 323 324 323 324 325 335 338 338 337 338 339 341 341 342 344 343 344 346 349 352 351 353 351 348 349 350 352 351 354 354 351 351 350 348 353 352 351 351 353 350 354 350 348 349
319 319 317 321 322 323 321 321 323 328 337 337 337 335 336 335 338 341 341 341 343 345 347 351 351 352 353 350 352 354 350 352 352 353 354 354 351 349 353 350 351 353 353 355 352 349 348 348 350
317 313 315 316 315 320 325 320 319 328 334 334 335 336 337 336 336 335 343 342 342 345 348 350 350 356 353 351 355 354 355 347 345 354 355 355 354 352 352 352 349 353 354 354 352 350 350 350 351
311 308 302 313 317 320 320 311 323 325 329 330 332 334 336 336 336 337 342 343 342 345 348 351 355 354 355 353 356 353 350 353 351 348 355 356 356 356 352 353 351 351 353 350 347 346 345 347 342
304 300 303 308 317 318 318 313 321 323 327 326 329 331 333 334 336 338 339 342 343 347 350 350 351 351 351 355 358 353 351 353 350 354 354 355 357 357 352 353 353 352 351 348 348 344 343 335 332
298 300 304 306 314 318 316 315 321 323 321 325 327 329 330 332 334 338 339 342 344 349 350 349 351 351 350 357 355 355 352 354 356 353 349 352 356 358 353 351 352 351 347 347 344 343 342 334 333
306 305 305 310 317 317 317 316 319 319 320 320 326 327 329 331 334 338 339 342 345 350 348 350 350 353 353 353 353 351 347 353 350 352 355 355 356 356 353 349 351 351 348 346 344 339 331 331 335
306 304 304 310 318 317 318 316 319 318 319 321 324 326 328 330 332 336 338 339 343 347 348 348 350 357 354 354 351 351 350 352 352 353 357 358 356 356 352 351 350 349 349 347 338 334 331 333 338
304 303 304 306 315 318 318 313 315 317 321 324 325 327 329 329 330 334 336 337 340 345 348 349 350 356 356 354 354 353 352 352 348 351 353 356 357 358 354 353 351 350 346 340 336 334 333 329 337
301 309 309 308 308 305 317 305 313 315 320 323 323 324 326 329 332 334 336 337 339 345 350 350 352 357 354 356 351 348 345 344 348 352 352 357 357 356 355 353 351 346 343 339 336 337 332 333 327
304 310 309 309 306 309 310 304 311 318 317 320 322 325 325 327 330 333 336 338 341 346 348 353 353 354 355 355 352 351 347 347 350 346 349 354 352 353 356 353 351 343 340 341 338 334 332 335 334
309 307 307 307 305 299 306 307 305 313 317 320 324 326 327 327 329 333 337 339 339 346 349 354 353 353 357 352 354 353 349 348 346 346 350 351 351 348 353 352 346 342 336 339 338 337 335 333 335
305 297 295 294 296 294 305 305 308 317 320 324 325 326 329 330 329 329 334 337 339 344 349 353 353 353 356 356 354 354 352 348 345 349 349 347 344 343 347 349 344 341 339 341 340 336 335 333 333
301 300 295 289 292 296 303 301 308 320 322 327 328 326 329 330 331 330 334 336 339 342 347 353 354 353 357 357 357 355 356 352 351 352 347 344 344 345 347 349 344 341 339 344 342 337 337 336 333
300 298 302 293 296 294 299 303 310 319 320 322 322 324 326 326 332 332 333 336 339 341 347 348 355 355 356 358 358 356 355 357 356 351 353 346 342 347 347 350 344 341 340 339 341 337 336 338 334
304 303 295 298 289 290 297 299 302 308 316 319 319 321 324 325 331 333 333 335 339 342 346 350 356 355 357 355 359 360 358 356 356 353 351 349 344 349 346 349 345 343 341 340 340 335 338 335 338
302 300 298 296 297 292 292 298 306 311 319 319 320 322 321 327 329 333 335 336 340 342 345 349 354 355 357 358 356 359 360 358 357 355 352 350 349 347 347 348 346 341 341 342 340 335 334 337 333
306 301 298 295 290 294 295 297 310 311 319 322 321 322 321 322 332 334 335 336 340 341 342 348 355 356 358 360 358 356 358 359 356 354 355 354 349 349 349 348 346 342 338 341 340 335 336 334 335
Wind_Speed
15 11 2 2 4 2 4 5 5 11 6 4 9 8 10 12 5 5 10 10 13 10 11 13 16 17 18 17 16 16 15 16 16 15 14 15 14 13 12 12 12 11 11 10 9 8 8 7 7
11 13 4 2 2 1 3 3 1 8 16 15 15 17 12 9 13 14 10 16 15 13 11 11 15 16 18 16 15 15 15 16 15 13 14 13 12 12 11 11 11 10 10 8 7 6 6 6 6
14 10 4 0 5 2 3 6 4 17 22 13 10 12 9 12 17 15 13 20 18 14 12 12 16 16 17 16 14 14 13 14 12 12 12 12 11 11 11 10 10 9 7 6 6 5 5 5 5
8 3 3 7 6 6 7 15 18 25 18 18 18 13 14 15 11 13 20 20 16 15 13 15 17 17 16 15 14 14 13 12 10 10 11 10 10 11 10 8 7 6 5 5 5 5 5 4 4
1 4 5 1 7 10 12 20 13 24 19 20 23 21 17 19 19 20 18 18 17 15 12 12 16 16 16 15 14 13 12 11 9 10 10 9 9 9 8 6 6 4 3 3 4 5 4 3 3
3 1 5 8 5 13 10 18 20 23 24 21 24 22 12 20 18 17 17 17 17 15 13 12 16 16 16 15 14 13 12 11 9 9 8 8 8 7 6 5 4 2 1 3 3 3 2 1 0
5 3 6 13 3 10 13 15 19 23 25 17 21 25 15 18 18 16 17 17 18 17 13 11 10 13 17 15 15 13 11 10 9 8 7 6 5 5 4 3 2 2 1 1 2 1 2 3 3
3 3 9 4 7 1 22 12 26 24 18 22 28 11 18 21 21 15 14 14 17 16 14 11 9 7 6 8 14 13 12 11 9 8 6 4 4 4 5 6 5 2 2 3 3 3 3 4 4
4 5 4 6 4 6 12 19 19 21 29 20 6 20 24 22 20 15 9 16 15 14 14 13 11 8 7 7 9 11 12 10 8 7 7 7 3 4 7 7 10 4 5 5 4 4 5 6 10
7 6 14 13 7 4 19 24 16 19 17 9 24 21 23 25 20 18 13 14 11 15 16 15 13 11 11 9 6 6 6 5 5 6 6 4 3 2 4 5 6 4 4 7 5 5 6 8 5
9 8 10 17 15 8 10 15 12 15 10 20 25 27 26 26 21 19 16 18 14 12 13 15 15 14 13 9 7 4 4 4 5 6 5 5 4 2 3 1 2 2 4 2 4 3 2 3 3
7 12 9 4 14 5 7 11 12 14 19 24 25 24 28 24 22 20 17 16 15 11 12 16 15 14 10 8 8 7 5 6 4 5 7 5 4 4 3 3 4 1 1 3 3 2 3 2 4
12 14 16 15 17 11 12 4 20 15 27 27 23 19 26 23 22 20 21 18 17 17 17 15 14 11 10 10 7 6 7 6 6 6 7 4 4 4 3 1 3 4 4 3 2 2 1 2 3
17 15 10 15 19 14 21 10 11 23 27 27 25 18 13 14 21 19 20 19 17 17 18 14 13 8 11 7 7 6 4 6 6 5 5 7 5 5 3 0 3 2 2 4 3 2 2 2 3
16 14 15 6 4 8 23 15 16 22 26 26 24 20 14 12 9 10 21 21 18 16 17 17 14 12 12 8 6 2 3 3 4 5 7 7 6 5 4 2 2 3 1 3 4 3 3 3 3
12 8 6 8 10 12 17 26 13 16 24 24 23 21 18 15 12 8 17 19 16 14 20 16 15 13 9 8 5 3 2 3 3 4 4 6 6 7 4 2 0 1 3 3 2 2 3 3 4
7 9 11 15 7 10 11 11 15 14 20 21 22 21 18 15 14 10 9 17 15 17 19 19 16 15 11 8 6 5 5 3 3 4 5 5 6 6 4 3 2 3 4 3 2 0 1 1 3
8 8 13 14 9 9 11 11 14 8 6 21 20 20 19 18 16 15 14 10 16 13 19 17 12 15 12 7 6 4 2 3 3 5 5 6 5 7 4 1 3 3 2 3 1 1 1 0 2
14 15 17 19 9 9 5 13 10 12 8 9 20 20 21 21 16 15 15 13 14 13 16 15 10 15 11 6 7 4 4 3 3 4 7 7 7 7 6 3 3 3 3 4 3 2 2 3 1
20 19 20 14 12 13 13 17 14 11 16 12 19 21 22 21 19 19 18 17 17 15 16 14 12 12 12 8 4 4 4 3 3 2 6 8 7 7 6 6 3 4 3 4 4 3 1 1 1
22 20 16 10 9 10 10 3 4 14 6 14 19 22 22 24 22 20 21 19 17 18 17 16 14 11 11 10 5 3 2 0 1 2 5 7 9 7 7 6 4 3 4 5 4 3 3 1 2
18 22 20 19 9 14 16 8 9 15 14 15 18 20 22 22 22 21 23 20 21 18 18 17 15 14 11 11 9 7 5 5 4 5 4 7 8 8 7 7 6 5 4 6 4 4 3 4 2
21 13 19 21 15 9 11 4 11 18 18 21 20 23 22 22 23 25 25 25 22 20 20 19 18 16 13 12 12 8 6 7 6 3 6 5 6 7 10 7 7 7 5 5 7 5 4 2 3
16 14 17 16 12 10 15 16 7 15 28 22 20 18 24 22 24 23 24 23 20 18 20 18 19 18 16 15 11 12 10 9 6 3 5 7 5 5 7 7 7 7 6 7 6 5 6 5 3
19 8 12 12 12 9 12 13 10 21 16 26 24 18 19 21 22 21 24 22 21 20 21 19 21 19 18 17 16 13 12 10 9 6 8 7 4 3 6 7 7 6 6 7 6 6 5 4 4
17 16 13 14 13 9 9 13 14 18 14 23 25 17 22 19 25 24 25 24 23 21 22 22 22 20 19 19 17 14 11 9 7 7 5 7 9 8 8 9 10 8 8 6 6 4 4 5 5
12 22 13 5 8 6 8 9 11 15 18 16 17 19 23 20 18 25 23 24 23 22 23 23 22 21 21 19 17 15 13 11 8 8 7 7 7 9 11 11 12 10 8 7 7 5 6 5 4
19 6 11 14 15 19 15 10 12 8 18 14 12 14 17 17 23 22 22 23 22 24 21 22 23 23 21 20 16 15 15 14 9 8 9 8 7 8 12 11 12 11 10 8 7 5 5 5 5
11 17 12 7 13 12 10 17 8 10 16 16 18 20 17 29 23 22 23 22 24 22 21 21 22 22 20 19 18 17 15 14 13 8 9 11 7 9 12 13 13 13 11 10 8 7 7 7 7
24 13 11 10 6 5 8 16 9 13 7 25 30 20 11 9 25 22 23 22 21 25 22 22 21 22 22 20 18 18 15 15 14 15 11 10 12 10 14 14 13 13 12 10 11 10 7 8 7
Wind_Direction
156 161 110 9 321 39 270 106 239 107 75 56 86 95 86 28 87 138 134 144 141 145 135 131 130 119 117 117 115 113 111 105 103 106 106 103 108 108 109 107 102 100 95 91 89 89 89 86 82
158 157 80 127 251 208 274 170 134 126 123 127 110 96 61 73 81 115 136 150 145 138 132 135 129 124 122 121 119 120 117 111 106 110 107 112 112 112 110 106 101 98 97 95 91 88 88 83 84
164 149 96 351 210 173 181 202 124 121 134 119 116 91 75 112 118 145 145 150 139 136 134 139 136 130 126 126 126 125 122 116 121 119 117 118 118 117 110 104 102 99 99 94 88 83 83 85 75
165 203 193 216 196 211 198 175 151 146 107 113 118 80 92 111 115 140 148 142 135 128 134 136 136 135 134 134 134 133 128 127 128 127 124 121 122 117 108 104 102 102 91 77 75 77 75 78 80
96 290 263 55 227 175 109 93 52 104 99 99 103 114 98 104 129 145 145 137 131 130 137 137 137 140 140 141 142 143 143 136 135 133 133 128 125 120 117 113 107 107 94 64 64 79 86 97 106
103 241 319 331 186 144 109 118 137 116 112 111 109 110 113 127 136 147 137 131 135 134 137 142 144 143 145 150 153 151 150 147 147 144 139 135 137 133 141 130 127 124 63 35 50 87 105 142 285
71 337 284 284 285 126 120 130 127 128 129 123 122 117 132 139 145 151 150 146 140 138 138 140 149 152 150 153 150 154 153 160 158 155 155 156 145 161 174 172 180 186 80 16 9 10 27 2 321
169 258 305 285 283 65 145 141 131 151 120 131 130 141 155 146 147 154 148 154 144 140 142 151 154 149 143 144 151 157 161 166 164 170 170 181 197 219 223 216 227 247 280 287 334 340 360 316 284
164 117 287 292 277 147 98 107 116 122 132 143 185 144 155 150 143 149 156 138 138 148 149 152 156 156 151 148 165 163 168 169 177 187 197 210 207 230 233 229 228 217 263 286 319 333 323 302 290
162 173 191 189 218 256 129 132 141 142 127 133 128 140 150 144 154 160 157 153 156 156 159 159 160 165 161 163 163 170 182 186 196 198 206 207 155 202 232 225 178 219 229 265 305 294 306 310 291
220 220 170 210 261 226 147 128 129 133 135 151 140 152 158 154 158 163 165 158 166 161 164 163 162 169 172 161 171 187 191 194 206 208 191 212 155 196 152 223 256 191 229 232 263 297 284 281 299
182 246 214 194 195 177 129 137 141 162 149 147 143 148 157 161 162 165 163 162 167 149 156 157 164 169 168 164 179 187 186 200 196 198 195 183 167 190 139 184 229 157 203 253 250 262 303 311 6
245 234 238 225 168 203 145 198 165 146 137 137 140 161 155 167 170 173 166 167 167 156 158 163 166 165 159 174 186 186 197 203 196 187 186 167 143 157 202 143 184 208 190 171 183 114 295 358 350
270 290 272 236 173 176 143 178 118 140 140 142 147 164 170 177 170 177 170 170 168 165 163 161 169 165 163 185 178 192 189 171 179 163 184 153 147 154 147 59 304 306 185 143 119 42 329 358 322
283 291 291 236 174 161 89 7 144 148 142 147 152 161 181 188 190 166 158 165 174 169 166 163 171 175 176 179 182 173 166 135 117 159 172 176 157 151 141 154 290 300 173 90 75 27 339 334 305
279 294 291 264 197 156 102 197 219 149 144 151 156 164 179 192 196 180 155 169 177 166 161 164 177 174 164 164 162 182 207 156 157 139 168 169 176 149 157 163 189 242 88 88 80 23 325 343 336
283 257 269 260 188 156 110 158 174 159 151 157 161 168 178 188 193 179 174 164 167 150 160 167 176 177 173 166 161 180 214 195 190 125 140 159 184 154 162 185 222 172 128 99 109 326 147 326 333
239 247 255 253 193 102 120 178 152 161 124 161 164 170 177 187 196 180 177 162 164 153 160 175 165 173 173 170 162 176 171 230 196 157 183 185 177 171 169 178 151 150 110 117 139 182 288 355 284
246 246 250 250 176 92 123 171 199 185 171 202 170 172 177 186 188 179 178 168 160 162 166 170 158 171 171 171 171 162 181 201 215 213 165 188 175 176 173 172 150 157 152 189 162 117 57 332 314
245 254 265 296 166 114 177 187 216 221 203 185 184 177 179 180 183 177 182 176 172 173 175 174 169 153 174 175 165 154 162 194 200 171 174 173 163 169 162 167 181 211 174 148 137 118 84 310 287
228 242 258 243 246 119 156 286 235 253 176 200 195 179 183 181 182 177 183 182 174 174 175 178 175 158 158 158 147 129 114 331 285 184 181 184 182 168 151 172 164 171 151 157 144 152 119 70 325
226 231 248 257 245 207 175 214 223 220 198 211 204 185 184 186 182 178 182 183 182 179 174 174 174 166 165 157 167 156 173 184 225 214 185 183 169 171 170 177 167 144 132 141 156 149 131 112 22
235 228 236 252 255 156 231 222 207 193 209 226 190 190 189 184 182 184 185 187 184 173 177 175 175 175 171 170 170 172 189 198 219 197 169 162 171 171 175 174 148 147 133 145 141 136 133 113 122
243 230 249 253 252 223 206 210 249 185 198 203 194 189 186 190 186 186 188 183 185 175 174 171 173 178 172 178 175 179 185 192 203 185 150 163 170 172 174 147 145 150 150 162 160 156 147 145 132
219 214 238 249 241 235 203 203 204 236 208 195 194 196 187 183 190 186 185 186 183 176 173 173 175 180 178 180 186 188 188 198 198 181 167 158 163 172 162 143 155 162 164 178 161 155 173 169 157
210 212 221 220 228 250 244 204 226 208 208 182 182 188 182 194 188 188 185 186 185 177 174 175 178 179 179 183 187 190 187 202 207 184 177 172 176 177 174 160 165 167 169 172 167 167 169 201 215
232 215 221 267 256 263 235 269 263 205 222 189 178 178 188 197 194 188 185 185 180 178 178 178 176 180 183 181 184 190 191 197 190 190 174 182 180 176 182 169 169 171 177 178 166 167 197 184 215
207 188 201 222 229 246 251 244 240 230 202 173 182 197 207 189 200 185 183 182 183 180 175 177 176 180 181 187 184 188 193 199 194 181 191 181 190 163 176 171 174 171 180 177 170 180 188 190 211
226 218 226 191 218 232 239 249 246 231 179 175 196 197 190 202 192 182 184 180 182 175 174 176 177 178 182 185 189 190 192 191 196 192 197 187 183 162 171 177 176 182 179 182 174 185 186 200 208
215 205 200 219 265 254 234 255 262 241 176 194 190 188 201 173 187 181 178 176 173 177 177 178 174 178 184 185 187 193 191 189 195 206 198 186 193 174 178 179 180 187 188 179 182 191 194 203 205